[Date Prev][Date Next][Thread Prev][Thread Next] - [Date Index][Thread Index][Author Index]

2 Line ISS Keps 5-29



ISS
1 25544U 98067A   05149.28885417  .00011641  00000-0  90900-4 0  5735
2 25544 051.6464 357.7319 0005437 175.6959 166.3077 15.72177291372705
----
Via the sarex mailing list at AMSAT.ORG courtesy of AMSAT-NA.
To unsubscribe, send "unsubscribe sarex" to Majordomo@amsat.org



AMSAT Top AMSAT Home